Regional Weather Roundup
Issued by NWS Cleveland, OH

Home | Current Version | Previous Version | Graphics & Text | Print | Product List | Glossary On
Versions: 1 2 3 4 5 6 7 8 9 10 11 12 13 14 15 16 17 18 19 20 21 22 23 24 25 26 27 28 29 30 31 32 33 34 35 36 37 38 39 40 41 42 43 44 45 46 47 48 49 50
000
ASUS41 KCLE 181400
RWRCLE
OHIO REGIONAL WEATHER ROUNDUP
NATIONAL WEATHER SERVICE WILMINGTON, OH
900 AM EST WED JAN 18 2017

NOTE: "FAIR" INDICATES FEW OR NO CLOUDS BELOW 12,000 FEET WITH NO
SIGNIFICANT WEATHER AND/OR OBSTRUCTIONS TO VISIBILITY.

OHZ001>008-015>018-024>027-034-035-043-044-181500-
   NORTHWEST OHIO

CITY           SKY/WX    TMP DP  RH WIND       PRES   REMARKS
DEFIANCE       CLOUDY    36  32  85 W9        30.10R FOG
FINDLAY        CLOUDY    37  33  85 W12       30.09R FOG
TOLEDO EXPRESS CLOUDY    35  35 100 W14       30.08R WCI  26
TOLEDO EXEC    CLOUDY    37  35  92 W13       30.09R
LIMA           CLOUDY    35  35 100 W13       30.11R FOG     WCI  26
$$

OHZ009>014-019>023-028>033-038-089-181500-
   NORTHEAST OHIO

CITY           SKY/WX    TMP DP  RH WIND       PRES   REMARKS
CLE-HOPKINS    CLOUDY    39  33  79 W13       30.08R
CLE-LAKEFRONT  CLOUDY    37  34  89 W14       30.06R
CUY CO. ARPT   CLOUDY    39  36  87 W17       30.05R
LORAIN-ELYRIA  CLOUDY    36  32  85 W12       30.08R
ASHTABULA      CLOUDY    36  35  96 W10       30.03R
AKRON-CANTON   LGT RAIN  41  35  79 W9        30.05R
WOOSTER        NOT AVBL
MANSFIELD      CLOUDY    35  34  96 W9        30.07R FOG     WCI  28
YOUNGSTOWN     CLOUDY    38  35  89 W8        30.03R
$$

OHZ042-051>053-060>062-070>072-077>081-181500-
  SOUTHWEST OHIO

CITY           SKY/WX    TMP DP  RH WIND       PRES   REMARKS
CINC-COVINGTON DRIZZLE   37  36  96 W8        30.18R FOG
CINC-LUNKEN    CLOUDY    39  36  89 W8        30.21R
HAMILTON       CLOUDY    39  36  89 W9        30.19R
DAYTON         NOT AVBL
WRIGHT-PAT AFB MOCLDY    37  35  91 W8        30.15R
DAYTON GENERAL CLOUDY    37  34  89 W7        30.15R
WILMINGTON     CLOUDY    36  34  92 W12       30.15R
$$

OHZ036-037-039>041-045>050-054>059-063>069-073>076-082>088-181500-
  CENTRAL AND SOUTHEAST OHIO

CITY           SKY/WX    TMP DP  RH WIND       PRES   REMARKS
COLUMBUS       CLOUDY    39  34  82 W13       30.12R
OSU AIRPORT    CLOUDY    37  35  92 W10       30.12R
BOLTON FIELD   CLOUDY    37  34  87 W8        30.13R
RICKENBACK AFB NOT AVBL
NEWARK         CLOUDY    38  33  82 W9        30.11R
MARION         CLOUDY    36  34  92 W10       30.11R FOG
LANCASTER      CLOUDY    39  33  79 W8        30.13R
ZANESVILLE     CLOUDY    39  33  79 W9        30.10R
NEW PHILLY     CLOUDY    39  34  82 W7        30.09R
$$




USA.gov is the U.S. government's official web portal to all federal, state and local government web resources and services.